Location: Smithsonian NASM Public Observatory
(38.8879°N, 77.0185°W)
Time: 08:28:40
(UTC-04:00)

Daily predictions for brighter satellites

Satellite Brightness Start Highest point End
(mag) Time Altitude Azimuth Time Altitude Azimuth Time Altitude Azimuth
ERS-1 Rocket 3.6 20:44:39 10° SE 20:49:18 39° ENE 20:53:58 10° N
ALOS 2.4 20:44:50 10° S 20:49:30 83° WSW 20:54:13 10° NNW
Cosmos 1892 2.7 20:46:34 10° S 20:50:23 89° ESE 20:54:17 10° N
Cosmos 407 Rocket 3.9 20:47:13 10° N 20:52:21 49° ENE 20:57:29 10° SE
Cosmos 1340 Rocket 4.0 20:51:12 10° SSW 20:55:03 47° WNW 20:58:59 10° N
Cosmos 2074 Rocket 4.1 20:53:59 10° S 21:00:16 88° E 21:06:34 10° N
Cosmos 1452 Rocket 3.7 20:58:23 10° S 21:03:26 49° ESE 21:08:30 10° NNE
H-2A R/B 3.2 20:59:48 10° S 21:03:27 60° W 21:07:10 10° NNW
Cosmos 1782 2.9 21:01:12 10° N 21:05:13 63° E 21:09:13 10° SSE
Cosmos 1356 Rocket 4.3 21:02:35 10° SSW 21:06:44 55° WNW 21:10:58 10° N
Cosmos 1674 Rocket 3.6 21:02:50 10° N 21:07:17 68° E 21:11:41 10° SSE
Cosmos 1190 Rocket 4.0 21:02:49 10° NNW 21:08:03 85° ENE 21:13:15 10° SSE
ATLAS 5 CENTAUR R/B 3.0 21:03:37 10° NW 21:09:35 58° WSW 21:15:55 10° SSE
Cosmos 1610 Rocket 4.5 21:04:07 10° S 21:10:13 72° E 21:16:26 10° N
USA 186 2.9 21:07:56 10° S 21:10:56 44° W 21:14:06 10° NNW
Okean 2 Rocket 4.3 21:07:59 10° SE 21:11:27 23° E 21:14:54 10° NE
Atlas Centaur 2 2.8 21:10:32 10° SW 21:13:09 19° S 21:15:19 12° SSE
CENTAUR R/B 3.9 21:08:51 10° NW 21:16:29 51° WSW 21:24:26 10° S
OAO 3 Rocket 4.2 21:12:33 10° SW 21:16:44 27° SSE 21:20:22 12° ESE
Resurs 01 Rocket 4.5 21:14:29 10° SW 21:16:56 15° W 21:19:24 10° WNW
Nadezhda 3 Rocket 4.2 21:12:25 10° N 21:18:39 54° E 21:24:51 10° SSE
Cosmos 1939 Rocket 3.0 21:16:52 11° SSE 21:20:33 55° ENE 21:24:25 10° N
Meteor 2-6 Rocket 4.4 21:15:44 10° N 21:21:43 90° W 21:27:31 10° S
Cosmos 1782 Rocket 4.2 21:18:03 10° SSE 21:22:08 37° E 21:26:16 10° NNE
Cosmos 1242 Rocket 4.2 21:19:25 10° NNE 21:22:12 20° ENE 21:23:49 16° ESE
Cosmos 1184 Rocket 3.6 21:19:36 12° SSE 21:22:19 32° E 21:25:22 10° NNE
Sich 1 Rocket 3.6 21:18:22 10° S 21:22:57 86° E 21:27:34 10° N
YAOGAN 6 4.2 21:21:31 14° ESE 21:23:07 19° ENE 21:25:39 10° NNE
ISS -3.1 21:20:00 10° WSW 21:23:14 72° NW 21:26:30 10° NE
Cosmos 1408 2.9 21:21:09 10° SSE 21:24:39 45° E 21:28:09 10° NNE
Cosmos 1238 Rocket 3.2 21:22:22 10° NNE 21:25:33 38° E 21:28:09 17° SE
SPOT 5 3.5 21:25:17 14° SE 21:29:32 46° ENE 21:34:39 10° N
COSMOS 2406 4.3 21:25:52 10° NW 21:31:15 42° WSW 21:36:34 10° S
Cosmos 1833 Rocket 4.3 21:28:23 10° N 21:32:26 20° NE 21:35:46 12° E
Cosmos 2278 Rocket 2.1 21:29:28 10° SSW 21:35:07 76° ESE 21:40:48 10° NNE
Cosmos 1825 2.1 21:31:30 10° S 21:35:16 66° E 21:39:05 10° NNE
Cosmos 1844 Rocket 3.6 21:30:10 10° SW 21:35:40 52° WNW 21:41:11 10° NNE
Cosmos 2084 3.8 21:34:13 10° SW 21:38:03 60° NW 21:41:50 10° NNE
Cosmos 1975 Rocket 3.4 21:34:09 10° N 21:38:19 44° E 21:40:50 21° SE
Cosmos 676 Rocket 4.0 21:33:41 10° NNW 21:38:55 85° WSW 21:43:24 14° SSE
Cosmos 1174 3.2 21:36:46 10° NW 21:39:54 67° WSW 21:41:30 24° SSE
Cosmos 1844 4.2 21:34:58 10° SSW 21:40:41 65° WNW 21:46:28 10° NNE
BREEZE-M DEB (TANK) 3.6 21:40:02 10° W 21:42:01 28° SSW 21:43:47 18° SSE
Cosmos 1954 Rocket 4.0 21:37:40 10° NNW 21:42:54 80° ENE 21:46:48 18° SSE
Cosmos 2341 Rocket 4.0 21:38:01 10° S 21:44:18 75° E 21:50:34 10° N
Cosmos 1908 Rocket 4.0 21:42:25 10° SSW 21:46:46 65° W 21:51:12 10° N
Cosmos 1378 Rocket 3.5 21:44:41 10° N 21:49:02 84° W 21:52:23 16° S
COS B Rocket 3.1 21:45:11 10° N 21:49:11 83° W 21:51:57 16° S
Intercosmos 25 3.5 21:47:58 28° SE 21:49:16 40° E 21:52:17 10° NNE
SL-8 Rocket 4.2 21:49:49 16° SSE 21:54:46 53° E 22:00:47 10° NNE
Cosmos 962 Rocket 4.5 21:49:31 10° S 21:55:41 89° W 22:01:57 10° N
Cosmos 2082 Rocket 3.0 21:50:59 10° N 21:56:15 37° ENE 21:58:58 24° ESE
Meteor 1-14 Rocket 4.5 21:53:53 20° SSE 21:57:35 48° E 22:02:56 10° NNE
Cosmos 1741 Rocket 4.3 21:52:47 10° N 21:57:54 51° ENE 22:00:21 28° SE
Nimbus 7 Rocket 4.5 21:52:35 10° NNE 21:58:34 83° WNW 22:04:33 10° SSW
deb Chang Zheng 4 4.2 21:54:32 10° N 21:58:54 59° WNW 22:03:15 10° SSW
Timation 2 Rocket 3.9 21:54:57 10° NNW 22:00:55 67° ENE 22:04:13 27° SE
Cosmos 1023 Rocket 4.4 21:57:32 10° NNW 22:02:41 81° ENE 22:05:25 28° SSE
USA 245 3.4 22:05:04 41° ESE 22:05:43 48° ENE 22:09:38 10° N
GPS 2-05 Rocket1 3.1 22:03:26 10° WSW 22:07:02 50° S 22:07:26 48° SSE
Cosmos 2297 3.6 22:05:43 10° SSW 22:11:23 76° ESE 22:17:08 10° NNE
Envisat 3.8 22:09:02 13° S 22:13:20 47° W 22:18:14 10° NNW
Cosmos 1295 Rocket 4.5 22:07:12 10° S 22:13:31 90° W 22:19:49 10° N
H-2A R/B 3.2 22:12:33 15° SSW 22:15:42 39° W 22:19:41 10° NNW
Cosmos 2151 Rocket 3.7 22:16:23 42° SE 22:17:32 54° E 22:21:57 10° NNE
SEDSat Delta rocket 4.4 22:14:34 10° SW 22:16:42 21° SSW 22:16:42 21° SSW
NOAA 11 4.3 22:15:50 34° SE 22:18:12 64° ENE 22:23:40 10° N
CZ-3C R/B 3.9 22:05:17 10° WSW 22:21:16 22° SSW 22:23:56 20° S
COSMOS 2487 3.9 22:18:47 10° NW 22:22:05 34° WSW 22:23:26 25° SW
APEX 3.9 22:18:28 10° SW 22:22:16 63° WNW 22:27:16 10° NNE
CZ-4 R/B 3.8 22:17:52 10° NNE 22:22:27 55° E 22:23:30 44° SSE
Cosmos 864 Rocket 4.5 22:21:57 31° SSE 22:24:50 62° E 22:30:55 10° NNE
Cosmos 614 Rocket 3.8 22:19:58 10° NNW 22:25:05 84° ENE 22:26:48 43° SSE
MetOp-B 4.5 22:25:26 25° S 22:28:29 62° W 22:33:47 10° NNW
CZ-4 SHROUD 4.4 22:32:36 34° WSW 22:32:55 35° W 22:35:48 10° NNW
Cosmos 2366 rocket 3.9 22:32:19 29° S 22:35:44 81° E 22:42:06 10° N
Cosmos 1140 Rocket 4.2 22:32:25 10° NNW 22:37:20 47° WSW 22:39:36 28° SSW
Okean 1 Rocket 4.3 22:38:39 28° ENE 22:38:39 28° ENE 22:41:43 10° NNE
CZ-4C R/B 3.6 22:41:21 54° ENE 22:41:21 54° ENE 22:45:14 10° N
Landsat 7 3.8 22:40:33 55° ESE 22:41:14 63° ENE 22:45:57 10° N
USA 234 3.4 22:35:22 10° ENE 22:41:34 44° SE 22:43:01 39° SSE
Cosmos 2369 Rocket 4.2 22:45:04 14° ENE 22:45:04 14° ENE 22:46:20 10° ENE
H-2A R/B 2.3 22:42:13 48° ESE 22:43:18 57° ENE 22:48:31 10° N
CZ-4B R/B 3.8 22:42:41 10° N 22:47:32 60° WNW 22:50:13 25° SW
ARGOS 3.3 22:46:30 41° S 22:48:21 68° WSW 22:53:41 10° NNW
Timation 1 Rocket 4.2 22:46:57 34° S 22:49:39 77° ESE 22:55:40 10° NNE
SL-08 RB Rocket 3.8 22:49:27 57° SSW 22:50:16 72° W 22:54:55 10° NNW
Terra 1.8 22:56:47 63° E 22:56:56 63° ENE 23:01:39 10° N
SPOT 1/Viking Rocket 4.3 22:57:07 33° SSW 22:58:55 45° W 23:03:56 10° NNW
OAO 3 Rocket 4.1 22:55:03 10° WSW 22:58:14 36° SW 22:58:14 36° SW
ISS -0.1 22:58:13 10° NW 23:00:09 15° NNW 23:02:04 10° NNE
Meteor 1-20 Rocket 4.1 23:01:01 54° S 23:02:21 89° W 23:07:54 10° N
Cosmos 1302 Rocket 4.5 23:06:46 46° ENE 23:06:46 46° ENE 23:11:05 10° NNE
Spot 4 3.9 23:11:30 66° ENE 23:11:30 66° ENE 23:16:12 10° N
CARTOSAT-1 3.8 23:15:44 67° NW 23:15:44 67° NW 23:19:35 10° NNW
Cosmos 1833 Rocket 2.8 23:11:15 10° NNW 23:16:47 60° WSW 23:17:28 56° SW
Okean 1 4.0 23:15:23 10° N 23:18:36 53° NNW 23:18:36 53° NNW
Cosmos 1727 Rocket 4.4 23:14:34 10° NNW 23:20:35 55° W 23:22:23 41° SW
Lacrosse 5 2.6 23:25:04 42° NE 23:25:04 42° NE 23:28:27 10° NE
USA 229 DEB 4.0 23:25:22 10° NW 23:32:16 55° WSW 23:33:32 49° SSW
USA 229 4.0 23:25:28 10° NW 23:32:23 55° WSW 23:33:38 49° SSW
Iridium 4 Rocket 4.0 23:29:32 10° N 23:35:10 60° ENE 23:35:10 60° ENE
ASTEX 1 3.6 23:33:32 10° N 23:38:13 67° WNW 23:38:13 67° WNW
BREEZE-M DEB (TANK) 4.4 23:33:48 10° WNW 23:38:18 25° W 23:38:18 25° W
Cosmos 2082 Rocket 3.5 23:35:19 10° NW 23:40:10 29° WSW 23:40:49 29° WSW
Meteor 2-4 Rocket 4.0 23:43:18 10° N 23:48:06 57° NE 23:48:06 57° NE
NOSS 3-1 (A) 4.2 23:43:13 10° NNW 23:50:50 67° NE 23:52:37 53° ESE
Cosmos 1821 Rocket 3.9 23:52:03 81° SW 23:52:19 84° W 23:58:35 10° N
Cosmos 1605 Rocket 4.3 23:53:28 56° ENE 23:53:28 56° ENE 23:59:20 10° NNE
